Lid_Strength_Index
12 12 13 13 13 12 12 12 12 13 13 13 13 13 14 14 14 14 14 15 15 15 14 12 14 14 14 13 13 13 13 13 16 16 14 13 13 13 12 10 10 10 9
12 13 12 12 12 12 12 13 13 13 13 13 13 14 14 14 14 15 15 15 15 16 13 13 15 14 14 13 13 13 13 13 16 17 14 14 13 12 11 9 8 8 8
13 13 13 12 12 12 12 13 13 13 14 14 14 14 14 14 15 15 15 15 15 15 15 15 16 16 15 14 13 13 13 13 14 15 14 12 12 10 9 7 8 8 8
12 12 12 12 12 12 12 13 13 13 14 14 14 14 14 15 15 15 15 15 15 15 15 15 16 16 15 14 14 13 12 13 13 13 13 13 11 9 8 8 7 7 8
12 12 12 12 12 12 13 13 14 14 14 14 14 14 15 16 15 16 16 15 15 15 15 15 16 16 15 14 12 12 12 13 13 12 12 12 12 10 9 8 7 7 8
12 12 12 13 13 13 13 14 14 14 15 15 15 15 16 15 14 13 13 15 15 16 18 17 17 16 15 14 12 10 10 11 12 12 12 13 12 10 9 9 9 10 11
13 13 13 13 13 13 14 14 14 15 15 15 16 16 18 18 13 13 12 16 18 20 20 19 19 16 17 15 12 11 11 10 10 11 13 13 13 11 11 10 11 12 14
14 14 13 14 14 14 14 14 15 15 15 16 17 18 21 20 14 13 12 19 22 23 24 23 22 21 18 14 12 14 12 12 13 12 12 13 12 12 11 11 13 15 14
15 14 14 14 14 15 15 15 15 17 19 18 20 20 21 20 14 12 13 22 22 22 23 24 22 20 15 12 12 15 15 17 14 13 12 12 12 13 12 13 17 20 19
14 14 14 14 14 15 14 15 18 17 16 15 18 19 20 19 15 13 13 21 23 24 25 24 17 18 13 12 13 14 17 19 19 20 20 19 18 17 15 16 17 20 21
16 16 15 14 14 14 15 16 17 17 18 17 19 19 20 21 20 13 12 21 20 23 25 25 23 15 13 12 12 14 14 16 19 21 22 21 19 19 18 19 18 18 20
17 16 16 15 14 14 15 16 16 16 17 16 17 18 19 20 19 14 12 12 15 20 22 24 24 15 14 13 13 13 13 16 21 20 24 21 22 20 19 19 19 19 18
17 17 17 16 15 14 15 16 17 16 16 16 16 16 16 18 19 13 13 12 12 21 23 20 15 16 16 18 15 15 20 22 25 26 26 25 24 21 21 20 19 20 19
16 17 18 17 17 16 15 15 15 15 15 15 16 17 16 19 18 18 18 17 14 16 17 22 19 18 17 18 22 20 22 24 25 26 26 25 24 23 23 20 21 23 22
16 17 19 18 17 16 15 14 14 13 13 14 14 15 16 17 16 15 16 18 19 18 24 24 23 23 24 24 24 24 24 23 24 25 26 26 24 24 22 21 21 21 23
17 16 18 18 18 17 15 16 12 12 12 12 12 14 15 14 13 13 13 13 14 14 25 26 24 23 24 24 24 24 24 24 24 24 25 25 24 24 22 21 21 22 23
19 17 15 17 17 16 15 15 15 14 11 11 11 11 12 14 12 12 12 12 12 13 25 26 23 22 23 23 24 24 24 24 24 24 24 24 24 23 22 22 21 21 21
20 18 15 13 14 14 14 14 14 14 14 13 11 11 11 11 12 11 11 12 14 14 23 22 22 23 24 25 25 25 25 25 25 25 25 25 25 25 24 23 22 22 21
21 18 16 14 13 14 14 15 14 13 13 13 15 12 11 11 11 11 11 19 17 18 20 23 22 22 24 25 26 27 27 26 26 26 26 26 26 24 24 24 23 22 21
20 19 18 16 15 13 14 14 13 13 13 13 14 13 12 12 12 13 13 14 18 19 20 20 21 22 23 25 27 28 29 28 28 28 27 25 26 25 26 24 22 23 23
23 22 20 17 14 14 13 13 12 12 13 13 13 13 12 12 12 12 13 14 15 16 18 19 20 21 22 25 27 28 28 26 26 28 27 27 25 25 25 24 25 25 25
24 22 21 19 15 14 14 13 13 13 13 13 13 13 11 11 12 12 12 14 14 14 16 18 19 20 21 22 24 26 27 27 28 27 27 28 27 26 27 27 26 26 26
24 22 22 19 17 16 14 13 13 13 13 13 13 13 14 12 12 13 12 14 15 15 17 18 19 20 21 21 22 23 24 25 24 24 25 27 27 26 25 26 27 27 27
25 24 22 20 18 17 16 14 13 13 13 13 13 12 13 12 12 12 13 16 16 16 16 17 18 19 22 22 22 23 25 26 25 24 24 25 27 28 27 27 29 29 28
24 23 21 20 20 18 18 16 12 12 13 12 12 12 12 13 13 11 12 14 15 16 17 17 17 18 20 21 22 24 25 23 25 26 26 26 27 27 27 27 28 31 30
23 24 23 21 20 18 18 18 17 13 12 11 11 11 11 12 11 11 11 12 14 16 17 16 16 18 19 20 22 23 23 23 25 25 25 25 26 28 28 29 29 28 29